Location: Barranco Hondo
(28.4034°N, 16.3499°W)
Time: 07:55:55
(UTC+00:00)

Daily predictions for brighter satellites

Satellite Brightness Start Highest point End
(mag) Time Altitude Azimuth Time Altitude Azimuth Time Altitude Azimuth
Cosmos 1758 Rocket 3.7 18:55:00 10° SSE 18:59:10 49° E 19:03:19 10° NNE
CZ-4 R/B 2.4 18:58:15 10° SE 19:01:29 24° ENE 19:04:47 10° NNE
COSMO-SKYMED 1 2.5 18:57:54 10° NNE 19:02:14 75° ESE 19:06:33 10° S
Cosmos 962 Rocket 4.4 18:59:17 10° S 19:05:21 74° E 19:11:28 10° N
Okean-O 2.6 19:02:41 10° SSE 19:07:03 66° ENE 19:11:27 10° N
Cosmos 494 Rocket 4.3 19:04:15 10° N 19:09:05 42° ENE 19:13:54 10° SE
Atlas Centaur 2 2.3 19:08:01 10° SW 19:12:27 53° SSE 19:17:49 11° E
CZ-4C R/B 3.2 19:09:37 10° NNW 19:17:11 56° ENE 19:25:24 10° SE
CZ-2D R/B 4.4 19:17:06 10° ESE 19:20:00 21° ENE 19:22:56 10° NNE
NOSS 0 Rocket 4.0 19:14:02 10° N 19:20:08 57° ENE 19:26:09 10° SE
Nadezhda 3 Rocket 4.3 19:16:52 10° N 19:23:10 76° W 19:29:30 10° S
Cosmos 1825 Rocket 3.5 19:19:59 10° S 19:24:22 88° W 19:28:43 10° N
Cosmos 1300 4.3 19:26:23 10° NNW 19:29:55 37° W 19:33:26 10° SSW
YAOGAN 6 3.0 19:26:38 10° S 19:30:18 66° W 19:33:58 10° NNW
Atlas 2A Centaur Rocket 3.8 19:19:11 10° SW 19:30:21 35° S 19:33:22 13° ESE
USA 32 4.5 19:26:54 10° SSW 19:32:04 65° W 19:37:15 10° N
Iridium 96 3.6 19:30:51 10° N 19:33:12 52° E 19:35:41 10° SSE
MDS-1 4.3 19:31:25 10° W 19:33:13 48° S 19:35:10 16° ESE
USA 234 3.2 19:27:53 10° SE 19:34:26 86° NE 19:40:59 10° NW
SL-8 Rocket 4.0 19:28:35 10° S 19:34:53 85° E 19:41:13 10° N
Cosmos 2237 Rocket 2.3 19:31:19 10° N 19:36:47 51° ENE 19:42:12 10° SE
H-2A ROCKET BODY 1.8 19:28:35 10° W 19:38:40 90° SSW 19:40:37 24° E
CSL-04 Rocket 3.8 19:33:35 10° SSE 19:38:52 54° ENE 19:44:13 10° N
Cosmos 2333 Rocket 3.6 19:34:38 10° NW 19:39:58 43° WSW 19:45:15 10° S
DMSP B5D1-3 4.4 19:36:21 10° NNE 19:41:27 76° ESE 19:46:32 10° S
Cosmos 1328 3.7 19:37:41 10° S 19:41:40 74° E 19:45:41 10° N
ISS -1.1 19:42:27 10° WNW 19:44:28 15° NW 19:46:29 10° N
Cosmos 1455 2.4 19:41:57 10° N 19:45:35 44° E 19:49:11 10° SSE
Cosmos 44 4.1 19:44:32 10° SW 19:49:05 46° WNW 19:53:26 10° NNE
FALCON 9 R/B 3.7 19:25:36 10° SW 19:50:30 66° SSE 19:55:01 25° E
Mugunghwa Rocket 4.3 19:47:36 10° WSW 19:54:14 71° S 19:58:35 26° E
Cosmos 2082 4.1 19:51:43 10° SSW 19:57:15 63° WNW 20:02:50 10° NNE
SL-16 R/B 3.3 19:53:37 10° N 19:57:05 24° NE 19:57:05 24° NE
YAOGAN 1 2.7 19:56:04 10° S 20:00:22 73° WSW 20:04:42 10° NNW
Cosmos 1939 Rocket 2.7 20:02:50 10° S 20:06:41 83° W 20:10:36 10° NNW
SL-08 R/B 4.4 20:01:14 10° S 20:07:27 83° E 20:13:49 10° N
Cosmos 1821 Rocket 4.3 20:01:32 10° SSE 20:07:29 43° E 20:10:18 28° NE
Cosmos 2297 Rocket 4.2 20:03:30 10° WSW 20:08:05 25° WNW 20:12:42 10° N
OAO 2 Rocket 4.4 20:04:56 10° SSW 20:09:05 28° SSE 20:09:37 27° SE
Cosmos 44 Rocket 3.7 20:04:59 10° S 20:09:22 39° ESE 20:09:22 39° ESE
Cosmos-2242 3.8 20:09:31 10° NNW 20:13:41 50° W 20:17:48 10° SSW
Cosmos 1980 4.3 20:13:28 10° NNW 20:19:02 57° WSW 20:24:34 10° S
Cosmos 2227 Rocket 4.4 20:16:11 10° WSW 20:20:29 22° WNW 20:24:45 10° NNW
Cosmos 2263 Rocket 3.4 20:19:06 10° SSE 20:21:52 25° SE 20:21:52 25° SE
ADEOS Rocket 3.6 20:19:12 10° N 20:26:00 71° WNW 20:33:27 10° SSW
Orbus 7S 4.3 20:23:30 10° W 20:25:45 33° WSW 20:25:45 33° WSW
SWIFT 3.9 20:23:11 10° SW 20:26:32 25° S 20:26:32 25° S
FUSE 4.2 20:27:11 10° WSW 20:32:26 56° S 20:32:48 54° SSE
OAO 3 Rocket 4.1 20:28:12 10° SW 20:31:42 36° S 20:31:42 36° S
CZ-4 R/B 4.4 20:33:53 10° SW 20:36:26 16° W 20:39:01 10° NW
Ariane Rocket 3.0 20:36:36 10° S 20:42:04 74° NW 20:46:44 10° NNW
Atlas Centaur 2 2.6 20:56:08 10° W 21:00:25 60° WNW 21:00:25 60° WNW
BREEZE-M DEB (TANK) 4.4 20:48:35 10° NW 21:06:39 65° SW 21:07:11 62° SSW
SL-16 R/B 4.4 21:37:24 10° NW 21:39:06 18° NW 21:39:06 18° NW
